Location: Newark
(33.6439°N, 114.9881°W)
Time: 08:47:56
(UTC+00:00)

Tiros 1 - Pass Details

Date: 24 July 2019
Orbit: 630 x 664 km, 48.4° (Epoch: 21 August)

Event Time Altitude Azimuth Distance (km) Brightness Sun altitude
Rises 22:03:55 0° 310° (NW) 2,995 10.8 56.5°
Reaches altitude 10° 22:07:18 10° 335° (NNW) 2,083 10.0 55.9°
Maximum altitude 22:09:59 15° 9° (N) 1,787 9.5 55.3°
Drops below altitude 10° 22:12:40 10° 43° (NE) 2,079 9.6 54.8°
Sets 22:16:02 0° 67° (ENE) 2,986 10.2 54.1°
